Content
SEND FEEDBACK

Daily
Averages
Monthly
Summary
United States of America

MEDICINE LODGE, KANSAS


Home > North America > United States > Kansas
Elevation: 1526 feet     Latitude: 37 18N     Longitude: 098 35W

WEATHER
 
SELECT A DAY
Number of Records: 179,192;   Date Range: 1/1/95 - 7/29/14
 
SHARE

PRINT THIS DATA

[ ← Previous Day ]
WEATHER ALMANAC - JANUARY 31, 2013
[ Next Day → ]
[ °C ]   °F
Weather ElementAverageHighLow
Temperature26.6 °F39.9 °F (10:56 am)17.1 °F (2:56 am)
Dewpoint16.3 °F25 °F (9:56 am)9 °F (11:56 pm)
Humidity65.6 %84 % (2:56 am)52 % (1:56 pm)
Barometer30.24 in30.48 in (9:56 pm)30.01 in (3:56 am)
Wind Speed8.8 mph19.6 mph (1:56 pm)
Wind Gust24.2 mph (10:56 am)
Weather ElementAverage
Wind DirectionE (88.3 °)

Weather ElementTotal
Precipitation---
Heating Degree Days36.5 (Base 65)
Averaged from 23 records on January 31, 2013
WEATHER CONDITIONS BREAKOUT
WIND DIRECTION BREAKOUT
WEATHER BY HOUR - JANUARY 31, 2013
[ °C ]   °F
Local TimeTemperatureDewpointHumidityBarometerVisibilityWind DirectionWind SpeedGust SpeedPrecipitationEventsConditions
1:56 AM18.0 °F12.9 °F81 %30.03 inNorth (10°)3.5 mph
2:56 AM17.1 °F12.9 °F84 %30.03 inNNE (20°)4.6 mph
3:56 AM21.9 °F14.0 °F72 %30.01 inNorth (360°)4.6 mph
4:56 AM26.1 °F15.1 °F63 %30.01 inNNW (340°)4.6 mph
5:56 AM26.1 °F15.1 °F63 %30.02 inNorth (350°)4.6 mph
6:56 AM21.9 °F15.1 °F75 %30.02 inNNE (20°)3.5 mph
7:56 AM23.0 °F17.1 °F78 %30.07 inWest (260°)5.8 mph
8:56 AM32.0 °F23.0 °F69 %30.12 inNorth (10°)3.5 mph
9:56 AM37.9 °F25.0 °F60 %30.14 inNorth (10°)6.9 mph
10:56 AM39.9 °F24.1 °F53 %30.18 inNE (40°)15.0 mph24.2 mph
11:56 AM37.9 °F23.0 °F55 %30.22 inNE (40°)18.4 mph24.2 mph
12:56 PM35.1 °F23.0 °F61 %30.24 inNNE (30°)17.3 mph
1:56 PM36.0 °F19.9 °F52 %30.25 inNNE (30°)19.6 mph24.2 mph
2:56 PM34.0 °F19.0 °F54 %30.28 inNNE (20°)17.3 mph
3:56 PM30.9 °F18.0 °F59 %30.32 inNNE (30°)19.6 mph
4:56 PM28.0 °F16.0 °F61 %30.36 inNNE (20°)13.8 mph24.2 mph
5:56 PM25.0 °F14.0 °F63 %30.38 inNNE (20°)11.5 mph
6:56 PM23.0 °F14.0 °F68 %30.45 inNE (40°)5.8 mph
7:56 PM21.9 °F12.9 °F68 %30.46 inENE (60°)8.1 mph
8:56 PM21.0 °F10.9 °F65 %30.46 inEast (90°)4.6 mph
9:56 PM19.9 °F10.0 °F65 %30.48 inCalm
10:56 PM19.0 °F10.0 °F68 %30.45 inSE (130°)3.5 mph
11:56 PM17.1 °F9.0 °F71 %30.44 inEast (100°)6.9 mph
Hourly data recorded from KP28, located miles away from Medicine Lodge, Kansas







STORIES FROM OUR PARTNERS